GW5071 Weather Reports


Display with metric or nautical units.
time (UTC)temp
F
wind
direction
speed
MPH
gust
MPH
rain 1hr
in
rain 24hr
in
rain mn
in
humidity
%
barometer
mb
20260506172636 54 218 7.0 19.0 0.00 0.00 0.00 93 1011.7
20260506172133 54 202 9.0 26.0 0.00 0.00 0.00 93 1011.7
20260506171631 55 211 15.0 20.0 0.00 0.00 0.00 93 1011.9
20260506171128 55 203 14.0 20.0 0.00 0.00 0.00 92 1012.0
20260506170625 55 203 15.0 19.0 0.00 0.00 0.00 92 1012.1
20260506170122 55 200 9.0 19.0 0.00 0.00 0.00 92
20260506165621 55 188 13.0 21.0 0.00 0.00 0.00 91 1012.1
20260506165116 55 213 12.0 22.0 0.00 0.00 0.00 91 1012.3
20260506164614 55 200 14.0 20.0 0.00 0.00 0.00 91 1012.3
20260506164111 55 208 17.0 24.0 0.00 0.00 0.00 91 1012.2
20260506163607 55 199 13.0 20.0 0.00 0.00 0.00 90 1012.5
20260506163103 55 218 13.0 19.0 0.00 0.00 0.00 90 1012.5
20260506162559 55 202 20.0 25.0 0.00 0.00 0.00 90 1012.2
20260506162056 56 201 19.0 22.0 0.00 0.00 0.00 90 1012.4
20260506161554 56 210 23.0 23.0 0.00 0.00 0.00 90 1012.4
20260506161046 56 201 9.0 22.0 0.00 0.00 0.00 90 1012.1
20260506160543 56 198 17.0 22.0 0.00 0.00 0.00 90 1012.2
20260506160040 56 189 18.0 23.0 0.00 0.00 0.00 90 1012.6
20260506155538 56 188 14.0 22.0 0.00 0.00 0.00 90 1012.4
20260506153714 56 202 11.0 20.0 0.00 0.00 0.00 89 1012.8
20260506153212 56 194 13.0 23.0 0.00 0.00 0.00 89 1012.8
20260506152709 56 186 14.0 22.0 0.00 0.00 0.00 89 1012.8
20260506152206 57 199 9.0 24.0 0.00 0.00 0.00 89 1012.6
20260506151706 57 199 16.0 22.0 0.00 0.00 0.00 89 1012.6
20260506151201 57 194 12.0 17.0 0.00 0.00 0.00 89 1012.6
20260506150658 57 206 17.0 21.0 0.00 0.00 0.00 89 1012.5
20260506150155 56 205 15.0 20.0 0.00 0.00 0.00 89 1012.5
20260506145652 56 210 19.0 25.0 0.00 0.00 0.00 90 1012.4
20260506145149 56 208 20.0 24.0 0.00 0.00 0.00 89 1012.6
20260506144647 56 200 16.0 22.0 0.00 0.00 0.00 90 1012.6
20260506144143 56 211 18.0 21.0 0.00 0.00 0.00 89 1012.6
20260506143641 56 202 12.0 23.0 0.00 0.00 0.00 89 1012.8
20260506143138 56 204 17.0 25.0 0.00 0.00 0.00 89 1012.9
20260506142637 56 195 13.0 24.0 0.00 0.00 0.00 88 1012.8
20260506142134 57 205 12.0 20.0 0.00 0.00 0.00 88 1012.8
20260506141632 57 194 13.0 21.0 0.00 0.00 0.00 87 1012.8
20260506141130 57 205 20.0 23.0 0.00 0.00 0.00 87 1012.8
20260506140627 57 207 9.0 24.0 0.00 0.00 0.00 88 1012.9
20260506140124 57 203 7.0 23.0 0.00 0.00 0.00 88 1013.0
20260506135621 57 206 18.0 23.0 0.00 0.00 0.00 88 1013.0
20260506135117 57 215 9.0 23.0 0.00 0.00 0.00 89 1013.0
20260506134614 56 199 17.0 24.0 0.00 0.00 0.00 90 1013.0
20260506134109 56 205 12.0 23.0 0.00 0.00 0.00 89 1013.5
20260506133607 56 206 10.0 27.0 0.00 0.00 0.00 89 1013.0
20260506133104 56 217 14.0 22.0 0.00 0.00 0.00 89 1012.9
20260506132601 56 192 9.0 19.0 0.00 0.00 0.00 89 1013.2
20260506132058 56 205 14.0 18.0 0.00 0.00 0.00 90 1013.2
20260506131556 56 203 12.0 19.0 0.00 0.00 0.00 90 1013.2
20260506131052 56 206 16.0 18.0 0.00 0.00 0.00 90 1012.9
20260506130549 56 210 15.0 17.0 0.00 0.00 0.00 90 1013.2
20260506130046 56 190 10.0 17.0 0.00 0.00 0.00 90 1013.2
20260506125545 56 195 15.0 19.0 0.00 0.00 0.00 89 1013.0
20260506125042 57 183 15.0 16.0 0.00 0.00 0.00 89 1013.0
20260506124539 56 201 13.0 20.0 0.00 0.00 0.00 90 1013.1
20260506124037 56 222 10.0 20.0 0.00 0.00 0.00 90 1013.1
20260506123535 57 213 9.0 19.0 0.00 0.00 0.00 89 1013.3
20260506123033 56 177 8.0 18.0 0.00 0.00 0.00 90 1013.3
20260506122529 56 206 4.0 19.0 0.00 0.00 0.00 90 1013.3
20260506122028 56 190 6.0 17.0 0.00 0.00 0.00 90 1013.5
20260506121525 56 186 10.0 17.0 0.00 0.00 0.00 90 1013.5
20260506121021 56 201 13.0 22.0 0.00 0.00 0.00 91 1013.3
20260506120519 56 214 15.0 22.0 0.00 0.00 0.00 91 1013.7
20260506120016 56 206 17.0 20.0 0.00 0.00 0.00 91 1013.4
20260506115514 56 202 12.0 25.0 0.00 0.00 0.00 91 1013.3
20260506115012 56 196 9.0 18.0 0.00 0.00 0.00 91 1013.3
20260506114509 56 219 16.0 23.0 0.00 0.00 0.00 92 1013.3
20260506114008 55 206 10.0 19.0 0.00 0.00 0.00 92 1013.1
20260506113505 55 206 11.0 22.0 0.00 0.00 0.00 92 1013.4
20260506113001 55 195 7.0 17.0 0.00 0.00 0.00 92 1013.2
20260506112459 55 195 18.0 22.0 0.00 0.00 0.00 92 1013.4
20260506111956 55 202 14.0 19.0 0.00 0.00 0.00 93 1013.3
20260506111454 55 201 8.0 20.0 0.00 0.00 0.00 93 1013.3
20260506110951 55 195 15.0 19.0 0.00 0.00 0.00 93 1013.2
20260506110449 54 193 11.0 21.0 0.00 0.00 0.00 93 1013.1
20260506105945 54 198 8.0 24.0 0.00 0.00 0.00 93 1013.1
20260506105441 54 208 15.0 25.0 0.00 0.00 0.00 93 1013.1
20260506104939 55 194 16.0 28.0 0.00 0.00 0.00 93 1013.3
20260506104437 55 196 8.0 21.0 0.00 0.00 0.00 93 1013.3
20260506103935 55 196 13.0 18.0 0.00 0.00 0.00 93 1013.3
20260506103432 55 201 12.0 18.0 0.00 0.00 0.00 93 1013.4
20260506102928 55 203 11.0 21.0 0.00 0.00 0.00 93 1013.1
20260506102427 54 197 6.0 18.0 0.00 0.00 0.00 93 1013.4
20260506101924 54 197 18.0 21.0 0.00 0.00 0.00 94 1013.1
20260506101420 54 195 13.0 21.0 0.00 0.00 0.00 94 1013.0
20260506100917 55 208 12.0 20.0 0.00 0.00 0.00 94 1013.0
20260506100416 54 191 13.0 23.0 0.00 0.00 0.00 94 1012.9
20260506095913 54 201 8.0 19.0 0.00 0.00 0.00 94 1013.2
20260506095411 54 208 18.0 23.0 0.00 0.00 0.00 94 1013.0
20260506094907 54 194 7.0 22.0 0.00 0.00 0.00 94 1013.2
20260506094406 54 195 13.0 22.0 0.00 0.00 0.00 94 1013.0
20260506093903 55 186 16.0 25.0 0.00 0.00 0.00 94 1012.9
20260506093401 55 202 16.0 20.0 0.00 0.00 0.00 94 1013.0
20260506092859 54 188 13.0 20.0 0.00 0.00 0.00 94 1013.2
20260506092356 54 205 10.0 23.0 0.00 0.00 0.00 94 1013.1
20260506091852 54 214 14.0 20.0 0.00 0.00 0.00 94 1012.9
20260506091351 54 209 13.0 21.0 0.00 0.00 0.00 94 1012.9
20260506090848 54 196 13.0 23.0 0.00 0.00 0.00 94 1013.3
20260506090345 54 198 13.0 20.0 0.00 0.00 0.00 94 1013.2
20260506085842 54 196 10.0 20.0 0.00 0.00 0.00 94 1013.1
20260506085338 54 212 12.0 22.0 0.00 0.00 0.00 94 1013.3
20260506084835 54 203 14.0 19.0 0.00 0.00 0.00 94 1013.3
20260506084332 55 210 9.0 22.0 0.00 0.00 0.00 93 1013.3
20260506083828 54 206 8.0 19.0 0.00 0.00 0.00 93 1013.3
20260506083326 54 209 16.0 21.0 0.00 0.00 0.00 93 1013.4
20260506082823 54 212 9.0 22.0 0.00 0.00 0.00 93 1013.4
20260506082319 54 208 13.0 21.0 0.00 0.00 0.00 93 1013.4
20260506081816 54 204 12.0 26.0 0.00 0.00 0.00 93 1013.5
20260506081314 55 217 14.0 22.0 0.00 0.00 0.00 93 1013.4
20260506080811 55 214 19.0 22.0 0.00 0.00 0.00 93 1013.6
20260506080307 55 202 11.0 20.0 0.00 0.00 0.00 93 1013.3
20260506073251 55 222 13.0 20.0 0.00 0.00 0.00 92 1013.5
20260506072748 55 218 19.0 26.0 0.00 0.00 0.00 92 1013.7
20260506072246 55 219 12.0 22.0 0.00 0.00 0.00 91 1013.9
20260506071744 55 208 17.0 23.0 0.00 0.00 0.00 91 1013.8
20260506071241 55 208 12.0 21.0 0.00 0.00 0.00 91 1013.8
20260506070738 55 204 19.0 24.0 0.00 0.00 0.00 91 1013.6
20260506070235 55 204 13.0 25.0 0.00 0.00 0.00 91 1013.5
20260506062212 55 207 14.0 22.0 0.00 0.00 0.00 90 1013.6
20260506061708 55 205 13.0 21.0 0.00 0.00 0.00 90 1013.7
20260506061205 55 198 10.0 20.0 0.00 0.00 0.00 90 1013.6
20260506060704 55 197 13.0 22.0 0.00 0.00 0.00 90 1013.4
20260506060200 55 194 13.0 19.0 0.00 0.00 0.00 90 1013.7
20260506051132 56 216 14.0 24.0 0.00 0.00 0.00 89 1013.7
20260506050631 56 209 17.0 25.0 0.00 0.00 0.00 89 1013.7
20260506050127 56 196 18.0 26.0 0.00 0.00 0.00 89 1013.8
20260506045121 56 213 25.0 32.0 0.00 0.00 0.00 89 1013.8
20260506044619 56 203 13.0 26.0 0.00 0.00 0.00 88 1013.9
20260506044115 56 212 20.0 27.0 0.00 0.00 0.00 88 1014.0
20260506043612 56 210 14.0 25.0 0.00 0.00 0.00 88 1013.7
20260506043111 56 206 17.0 25.0 0.00 0.00 0.00 88 1013.8
20260506042609 56 223 16.0 25.0 0.00 0.00 0.00 88 1013.6
20260506042107 56 226 14.0 25.0 0.00 0.00 0.00 88 1013.9
20260506041606 56 208 22.0 26.0 0.00 0.00 0.00 88 1013.9
20260506041102 56 206 22.0 31.0 0.00 0.00 0.00 88 1013.5
20260506040600 56 208 20.0 27.0 0.00 0.00 0.00 88 1013.9
20260506040056 56 215 16.0 28.0 0.00 0.00 0.00 88 1013.9
20260506035553 56 213 13.0 27.0 0.00 0.00 0.00 89 1013.5
20260506035050 56 206 24.0 27.0 0.00 0.00 0.00 89 1013.6
20260506034547 56 220 12.0 24.0 0.00 0.00 0.00 88 1013.8
20260506034044 55 208 12.0 26.0 0.00 0.00 0.00 88 1014.0
20260506033541 55 208 15.0 23.0 0.00 0.00 0.00 88 1013.7
20260506033038 56 184 8.0 22.0 0.00 0.00 0.00 88 1013.9
20260506032535 55 199 11.0 23.0 0.00 0.00 0.00 88 1013.9
20260506032032 55 200 10.0 21.0 0.00 0.00 0.00 88 1013.7
20260506031530 55 208 14.0 20.0 0.00 0.00 0.00 88 1013.9
20260506031026 55 205 12.0 20.0 0.00 0.00 0.00 88 1013.9
20260506030525 55 198 14.0 22.0 0.00 0.00 0.00 88 1013.9
20260506030022 55 213 9.0 26.0 0.00 0.00 0.00 88 1014.1
20260506025518 55 211 16.0 23.0 0.00 0.00 0.00 88 1013.9
20260506025015 55 215 15.0 26.0 0.00 0.00 0.00 89 1014.1
20260506024512 55 212 9.0 23.0 0.00 0.00 0.00 88 1014.1
20260506024008 55 199 14.0 19.0 0.00 0.00 0.00 88 1013.9
20260506023504 55 209 12.0 20.0 0.00 0.00 0.00 89 1013.9
20260506023001 55 209 14.0 26.0 0.00 0.00 0.00 89 1014.1
20260506022459 55 193 16.0 24.0 0.00 0.00 0.00 89 1014.0
20260506021956 55 204 15.0 23.0 0.00 0.00 0.00 88 1014.0
20260506021454 55 204 12.0 22.0 0.00 0.00 0.00 88 1014.2
20260506020951 55 203 11.0 21.0 0.00 0.00 0.00 88 1013.8
20260506020448 56 208 18.0 20.0 0.00 0.00 0.00 88 1014.1
20260506015945 56 211 14.0 25.0 0.00 0.00 0.00 87 1013.9
20260506015443 56 209 13.0 20.0 0.00 0.00 0.00 87 1013.9
20260506014939 56 211 11.0 21.0 0.00 0.00 0.00 87 1013.8
20260506014436 56 197 10.0 20.0 0.00 0.00 0.00 87 1013.7
20260506013933 56 209 16.0 19.0 0.00 0.00 0.00 87 1013.8
20260506013431 56 199 13.0 20.0 0.00 0.00 0.00 87 1013.9
20260506012927 56 204 10.0 19.0 0.00 0.00 0.00 87 1013.9
20260506012424 56 203 8.0 24.0 0.00 0.00 0.00 87 1013.6
20260506011921 56 201 12.0 23.0 0.00 0.00 0.00 87 1013.6
20260506011418 56 218 11.0 25.0 0.00 0.00 0.00 87 1013.7
20260506010915 56 215 14.0 20.0 0.00 0.00 0.00 86 1013.5
20260506010414 56 199 15.0 23.0 0.00 0.00 0.00 86 1013.6
20260506005909 56 209 18.0 23.0 0.00 0.00 0.00 86 1013.8
20260506005408 56 218 16.0 20.0 0.00 0.00 0.00 86 1013.6
20260506004902 56 217 17.0 26.0 0.00 0.00 0.00 86 1013.7
20260506004400 56 204 14.0 25.0 0.00 0.00 0.00 86 1013.8
20260506003856 56 208 19.0 26.0 0.00 0.00 0.00 86 1013.5
20260506003352 56 213 14.0 21.0 0.00 0.00 0.00 86 1013.5
20260506002849 56 204 21.0 22.0 0.00 0.00 0.00 85 1013.6
20260506002345 56 205 17.0 22.0 0.00 0.00 0.00 85 1013.1
20260506001841 56 200 16.0 24.0 0.00 0.00 0.00 84 1013.1
20260506001338 57 208 16.0 29.0 0.00 0.00 0.00 84 1012.8
20260506000835 56 215 17.0 27.0 0.00 0.00 0.00 84 1012.8
20260506000333 56 207 13.0 28.0 0.00 0.00 0.00 85 1013.1
20260505235830 56 201 22.0 31.0 0.00 0.00 0.00 85 1012.7
20260505235327 56 211 15.0 26.0 0.00 0.00 0.00 85 1012.6
20260505234824 56 212 22.0 25.0 0.00 0.00 0.00 85 1012.3
20260505234322 56 198 19.0 26.0 0.00 0.00 0.00 84 1012.3
20260505233818 57 202 15.0 27.0 0.00 0.00 0.00 84 1012.3
20260505233316 57 208 20.0 30.0 0.00 0.00 0.00 84 1012.1
20260505232813 57 220 20.0 30.0 0.00 0.00 0.00 84 1012.4
20260505232311 57 203 16.0 27.0 0.00 0.00 0.00 84 1012.3
20260505231808 57 208 18.0 28.0 0.00 0.00 0.00 84 1012.2
20260505231306 57 215 19.0 25.0 0.00 0.00 0.00 84 1012.1
20260505230804 57 204 20.0 27.0 0.00 0.00 0.00 84 1012.0
20260505230300 57 211 17.0 26.0 0.00 0.00 0.00 84 1012.1
20260505225757 57 199 17.0 26.0 0.00 0.00 0.00 84 1011.9
20260505225254 57 201 21.0 25.0 0.00 0.00 0.00 84 1012.1
20260505224749 57 193 12.0 27.0 0.00 0.00 0.00 84 1011.6
20260505224247 57 208 16.0 25.0 0.00 0.00 0.00 83 1012.0
20260505223744 57 199 17.0 26.0 0.00 0.00 0.00 83 1012.0
20260505223240 57 230 14.0 26.0 0.00 0.00 0.00 83 1012.0
20260505222736 57 208 19.0 27.0 0.00 0.00 0.00 83 1011.8
20260505222233 58 214 14.0 24.0 0.00 0.00 0.00 83 1011.8
20260505221730 58 189 11.0 31.0 0.00 0.00 0.00 82 1011.7
20260505221227 58 199 14.0 23.0 0.00 0.00 0.00 82 1011.5
20260505220723 58 206 18.0 25.0 0.00 0.00 0.00 82 1011.7
20260505220221 58 200 15.0 24.0 0.00 0.00 0.00 82 1011.9
20260505215719 58 188 12.0 24.0 0.00 0.00 0.00 83 1011.6
20260505215217 57 204 11.0 28.0 0.00 0.00 0.00 83 1011.7
20260505214714 57 215 14.0 27.0 0.00 0.00 0.00 83 1011.7
20260505214212 57 203 24.0 26.0 0.00 0.00 0.00 83 1011.4
20260505213709 57 198 15.0 28.0 0.00 0.00 0.00 82 1011.3
20260505213206 58 213 22.0 28.0 0.00 0.00 0.00 82 1011.3
20260505212702 58 186 16.0 22.0 0.00 0.00 0.00 82 1011.3
20260505212159 58 185 11.0 30.0 0.00 0.00 0.00 82 1011.3
20260505211656 58 194 17.0 25.0 0.00 0.00 0.00 82 1011.3
20260505211153 58 208 24.0 27.0 0.00 0.00 0.00 82 1011.1
20260505210650 58 204 16.0 27.0 0.00 0.00 0.00 82 1011.1
20260505210147 58 207 14.0 24.0 0.00 0.00 0.00 81 1011.1
20260505205644 58 203 15.0 29.0 0.00 0.00 0.00 81 1011.2
20260505205142 58 202 16.0 27.0 0.00 0.00 0.00 81 1011.3
20260505204638 58 197 15.0 26.0 0.00 0.00 0.00 80 1011.3
20260505204137 58 198 21.0 25.0 0.00 0.00 0.00 81 1011.1
20260505203633 58 216 15.0 24.0 0.00 0.00 0.00 81 1011.1
20260505203130 58 200 13.0 25.0 0.00 0.00 0.00 81 1011.1
20260505202626 58 220 8.0 25.0 0.00 0.00 0.00 81 1011.3
20260505202122 58 199 13.0 27.0 0.00 0.00 0.00 81 1011.2
20260505201619 58 199 18.0 26.0 0.00 0.00 0.00 81 1011.2
20260505201117 58 210 14.0 24.0 0.00 0.00 0.00 81 1011.2
20260505200614 58 202 13.0 23.0 0.00 0.00 0.00 81 1011.2
20260505200111 58 197 15.0 26.0 0.00 0.00 0.00 81 1011.5
20260505195607 58 181 23.0 26.0 0.00 0.00 0.00 82 1011.5
20260505195105 58 203 8.0 24.0 0.00 0.00 0.00 82 1011.3
20260505194602 58 183 10.0 27.0 0.00 0.00 0.00 83 1011.5
20260505194057 58 196 20.0 21.0 0.00 0.00 0.00 82 1011.6
20260505193555 58 196 17.0 19.0 0.00 0.00 0.00 82 1011.8
20260505193052 58 188 8.0 22.0 0.00 0.00 0.00 82 1011.8
20260505192550 58 207 14.0 22.0 0.00 0.00 0.00 82 1012.0
20260505192047 58 200 9.0 19.0 0.00 0.00 0.00 82 1011.9
20260505191545 58 202 9.0 18.0 0.00 0.00 0.00 83 1012.3
20260505191043 57 185 17.0 22.0 0.00 0.00 0.00 83 1012.2
20260505190537 58 172 13.0 20.0 0.00 0.00 0.00 83 1012.5
20260505190034 58 186 19.0 21.0 0.00 0.00 0.00 82 1012.5
20260505185531 58 194 14.0 18.0 0.00 0.00 0.00 81 1012.6
20260505185027 58 191 17.0 23.0 0.00 0.00 0.00 82 1012.6
20260505184524 58 204 13.0 20.0 0.00 0.00 0.00 82 1012.6
20260505184021 58 194 18.0 22.0 0.00 0.00 0.00 82 1012.7
20260505183518 58 189 11.0 23.0 0.00 0.00 0.00 82 1012.9
20260505183015 58 204 7.0 15.0 0.00 0.00 0.00 82 1013.0
20260505182511 58 198 13.0 17.0 0.00 0.00 0.00 82 1013.1
20260505182008 58 200 12.0 21.0 0.00 0.00 0.00 82 1013.0
20260505181505 58 195 14.0 19.0 0.00 0.00 0.00 82 1012.9
20260505181002 58 204 11.0 18.0 0.00 0.00 0.00 82 1013.2
20260505180452 58 210 11.0 19.0 0.00 0.00 0.00 82 1013.0
20260505175949 58 201 10.0 16.0 0.00 0.00 0.00 82 1013.2
20260505175445 58 185 13.0 17.0 0.00 0.00 0.00 82 1013.3
20260505174942 58 211 12.0 17.0 0.00 0.00 0.00 82 1013.2
20260505174440 58 215 7.0 17.0 0.00 0.00 0.00 83 1013.2
20260505173936 58 201 9.0 13.0 0.00 0.00 0.00 83 1013.4
20260505173432 58 207 10.0 14.0 0.00 0.00 0.00 83 1013.4
20260505172929 58 186 5.0 17.0 0.00 0.00 0.00 83 1013.5